Newton, NJ

5:51 PM EST on February 22, 2017 (GMT -0500)
Andover

Weather History for K12N - January, 2013

Change the Weather History Date:

Tuesday, January 29, 2013

  Actual Average (KFWN) Record (KFWN)
Temperature  
Mean Temperature 40 °F -  
Max Temperature 48 °F 33 °F 62 °F (2002)
Min Temperature 33 °F 13 °F -17 °F (1963)
Degree Days  
Heating Degree Days 24    
Moisture  
Dew Point 37 °F    
Average Humidity 90    
Maximum Humidity 96    
Minimum Humidity 69    
Precipitation  
Precipitation 0.23 in - - ()
Sea Level Pressure  
Sea Level Pressure 30.09 in    
Wind  
Wind Speed 1 mph (SSW)    
Max Wind Speed 6 mph    
Max Gust Speed -    
Averages and records for this station are not official NWS values.
T = Trace of Precipitation, MM = Missing Value Source: NWS Daily Summary

Daily Weather History Graph

Daily Weather History Graph

Search for Another Location

Airport or City:

Trip Planner

Search our weather history database for the weather conditions in past years. The results will help you decide how hot, cold, wet, or windy it might be!

Date:

Astronomy

Jan. 29, 2013 Rise Set
Actual Time 7:12 AM EST 5:12 PM EST
Civil Twilight 6:42 AM EST 5:41 PM EST
Nautical Twilight 6:09 AM EST 6:14 PM EST
Astronomical Twilight 5:37 AM EST 6:47 PM EST
Moon 8:08 PM EST (1/29) 8:06 AM EST (1/29)
Length of Visible Light 10h 58m
Length of Day
10h 00m
Waning Gibbous, 94% of the Moon is Illuminated
Jan 29
Waning Gibbous
Feb 3
Last Quarter
Feb 10
New
Feb 17
First Quarter
Feb 25
Full

Hourly Weather History & Observations

Time (EST) Temp. Windchill Dew Point Humidity Pressure Visibility Wind Dir Wind Speed Gust Speed Precip Events Conditions
12:54 AM 33.1 °F 30.0 °F 32.0 °F 96% 30.02 in - South 3.5 mph - N/A   Unknown
1:54 AM 34.0 °F 31.0 °F 32.0 °F 92% 30.04 in - South 3.5 mph - N/A   Unknown
2:54 AM 33.1 °F - 32.0 °F 96% 30.04 in - Calm Calm - N/A   Unknown
3:54 AM 33.1 °F - 32.0 °F 96% 30.05 in - Calm Calm - N/A   Unknown
4:54 AM 34.0 °F - 32.0 °F 92% 30.08 in - Calm Calm - N/A   Unknown
5:00 AM - - - N/A% - - North - - N/A   Unknown
5:54 AM 33.1 °F - 32.0 °F 96% 30.10 in - Calm Calm - N/A   Unknown
6:54 AM 33.1 °F - 32.0 °F 96% 30.12 in - Calm Calm - N/A   Unknown
7:54 AM 33.1 °F - 32.0 °F 96% 30.14 in - Calm Calm - N/A   Unknown
8:54 AM 34.0 °F - 33.1 °F 96% 30.15 in - Calm Calm - N/A   Unknown
9:54 AM 37.9 °F - 35.1 °F 89% 30.16 in - Calm Calm - 0.04 in   Unknown
10:54 AM 42.1 °F - 39.0 °F 89% 30.14 in - Calm Calm - N/A   Unknown
11:54 AM 48.9 °F - 39.0 °F 69% 30.12 in - Calm Calm - 0.02 in   Unknown
12:54 PM - - - N/A% 30.08 in - Calm Calm - N/A   Unknown
1:54 PM 48.9 °F - 41.0 °F 74% 30.08 in - Calm Calm - N/A   Unknown
2:54 PM 48.0 °F - 42.1 °F 80% 30.06 in - SSW 3.5 mph - N/A   Unknown
3:54 PM 48.0 °F - 39.9 °F 74% 30.07 in - Variable 3.5 mph - N/A   Unknown
4:54 PM 48.0 °F - 41.0 °F 77% 30.09 in - Calm Calm - N/A   Unknown
5:54 PM 43.0 °F - 39.9 °F 89% 30.12 in - Calm Calm - 0.13 in   Unknown
6:54 PM 41.0 °F 39.0 °F 39.0 °F 93% 30.11 in - South 3.5 mph - N/A   Unknown
7:54 PM 39.0 °F - 37.9 °F 96% 30.12 in - Calm Calm - 0.04 in   Unknown
8:54 PM 41.0 °F - 39.0 °F 93% 30.11 in - Calm Calm - N/A   Unknown
9:54 PM 41.0 °F 39.0 °F 39.0 °F 93% 30.10 in - SW 3.5 mph - N/A   Unknown
10:54 PM 42.1 °F 38.4 °F 39.9 °F 92% 30.08 in - SSW 5.8 mph - N/A   Unknown
11:54 PM 41.0 °F - 39.9 °F 96% 30.06 in - Calm Calm - N/A   Unknown